Wetterdaten: aktuell Montag, 17.02.2020 07:56
Datum Zeit Temp. I. Temp. 2m Temp. 5cm Feuchte I. Feuchte 2m Luftdruck Regen Wind Richtung Richtung Taupunkt Windchill Windben
17.02.2020 07:56 17,0 C 3,3 C 1,6 C 48 % 91 % 1014,4 hPa 0,0 l/m 0,0 km/h (0 Bft) N-NW 337 2,0 C 3,3 C 0,0 km/h (0 Bft)
17.02.2020 07:54 17,0 C 3,2 C 1,6 C 48 % 91 % 1014,4 hPa 0,0 l/m 0,0 km/h (0 Bft) N-NW 337 1,9 C 3,2 C 0,0 km/h (0 Bft)
17.02.2020 07:52 17,0 C 3,1 C 1,5 C 48 % 91 % 1014,4 hPa 0,0 l/m 0,0 km/h (0 Bft) NW 315 1,8 C 3,1 C 0,0 km/h (0 Bft)
17.02.2020 07:50 17,0 C 3,1 C 1,5 C 48 % 91 % 1014,4 hPa 0,0 l/m 0,0 km/h (0 Bft) N-NW 337 1,8 C 3,1 C 0,0 km/h (0 Bft)
17.02.2020 07:48 17,0 C 3,0 C 1,4 C 48 % 91 % 1014,4 hPa 0,0 l/m 0,0 km/h (0 Bft) N-NW 337 1,7 C 3,0 C 0,0 km/h (0 Bft)
17.02.2020 07:46 17,0 C 3,0 C 1,4 C 48 % 91 % 1014,4 hPa 0,0 l/m 0,0 km/h (0 Bft) N-NW 337 1,7 C 3,0 C 0,0 km/h (0 Bft)
17.02.2020 07:44 17,0 C 3,0 C 1,3 C 48 % 91 % 1014,3 hPa 0,0 l/m 0,0 km/h (0 Bft) NO 45 1,7 C 3,0 C 0,0 km/h (0 Bft)
17.02.2020 07:42 17,0 C 3,0 C 1,3 C 48 % 91 % 1014,3 hPa 0,0 l/m 0,0 km/h (0 Bft) N-NO 22 1,7 C 3,0 C 0,0 km/h (0 Bft)
17.02.2020 07:40 17,0 C 2,9 C 1,1 C 48 % 91 % 1014,3 hPa 0,0 l/m 0,0 km/h (0 Bft) N-NW 337 1,6 C 2,9 C 0,0 km/h (0 Bft)
17.02.2020 07:38 17,1 C 2,9 C 1,1 C 48 % 91 % 1014,3 hPa 0,0 l/m 0,0 km/h (0 Bft) W-NW 292 1,6 C 2,9 C 0,0 km/h (0 Bft)
17.02.2020 07:36 17,0 C 3,0 C 1,1 C 48 % 91 % 1014,3 hPa 0,0 l/m 0,0 km/h (0 Bft) N-NW 337 1,7 C 3,0 C 0,0 km/h (0 Bft)
17.02.2020 07:34 17,1 C 3,0 C 1,1 C 48 % 91 % 1014,3 hPa 0,0 l/m 0,0 km/h (0 Bft) N-NW 337 1,7 C 3,0 C 0,0 km/h (0 Bft)
17.02.2020 07:32 17,1 C 2,7 C 1,0 C 48 % 91 % 1014,3 hPa 0,0 l/m 0,0 km/h (0 Bft) N-NW 337 1,4 C 2,7 C 0,0 km/h (0 Bft)
17.02.2020 07:30 17,1 C 2,1 C 0,9 C 48 % 92 % 1014,3 hPa 0,0 l/m 0,0 km/h (0 Bft) N-NW 337 0,9 C 2,1 C 0,0 km/h (0 Bft)
17.02.2020 07:28 17,1 C 2,2 C 0,9 C 48 % 92 % 1014,3 hPa 0,0 l/m 0,0 km/h (0 Bft) NO 45 1,0 C 2,2 C 0,0 km/h (0 Bft)
17.02.2020 07:26 17,1 C 2,3 C 0,9 C 48 % 92 % 1014,3 hPa 0,0 l/m 0,0 km/h (0 Bft) NW 315 1,1 C 2,3 C 0,0 km/h (0 Bft)
17.02.2020 07:24 17,1 C 2,2 C 0,8 C 47 % 92 % 1014,4 hPa 0,0 l/m 0,0 km/h (0 Bft) NW 315 1,0 C 2,2 C 0,0 km/h (0 Bft)
17.02.2020 07:22 17,1 C 2,2 C 0,8 C 47 % 92 % 1014,4 hPa 0,0 l/m 0,0 km/h (0 Bft) NO 45 1,0 C 2,2 C 0,0 km/h (0 Bft)
17.02.2020 07:20 17,1 C 2,2 C 0,8 C 47 % 92 % 1014,4 hPa 0,0 l/m 0,0 km/h (0 Bft) W-NW 292 1,0 C 2,2 C 0,0 km/h (0 Bft)
17.02.2020 07:18 17,2 C 2,2 C 0,8 C 47 % 92 % 1014,4 hPa 0,0 l/m 0,0 km/h (0 Bft) N-NO 22 1,0 C 2,2 C 0,0 km/h (0 Bft)
17.02.2020 07:16 17,2 C 2,0 C 0,7 C 47 % 92 % 1014,4 hPa 0,0 l/m 0,0 km/h (0 Bft) N 360 0,8 C 2,0 C 0,0 km/h (0 Bft)
17.02.2020 07:14 17,2 C 1,6 C 0,7 C 47 % 92 % 1014,4 hPa 0,0 l/m 0,0 km/h (0 Bft) N-NO 22 0,4 C 1,6 C 0,0 km/h (0 Bft)
17.02.2020 07:12 17,2 C 1,6 C 0,6 C 47 % 92 % 1014,4 hPa 0,0 l/m 0,0 km/h (0 Bft) N-NO 22 0,4 C 1,6 C 0,0 km/h (0 Bft)
17.02.2020 07:10 17,2 C 1,6 C 0,6 C 47 % 92 % 1014,4 hPa 0,0 l/m 0,0 km/h (0 Bft) NW 315 0,4 C 1,6 C 0,0 km/h (0 Bft)
17.02.2020 07:08 17,2 C 1,7 C 0,6 C 47 % 91 % 1014,4 hPa 0,0 l/m 0,0 km/h (0 Bft) NO 45 0,4 C 1,7 C 0,0 km/h (0 Bft)
17.02.2020 07:06 17,2 C 1,7 C 0,7 C 47 % 91 % 1014,4 hPa 0,0 l/m 0,0 km/h (0 Bft) N 360 0,4 C 1,7 C 0,0 km/h (0 Bft)
17.02.2020 07:04 17,2 C 1,9 C 0,7 C 47 % 91 % 1014,1 hPa 0,0 l/m 0,0 km/h (0 Bft) N 360 0,6 C 1,9 C 0,0 km/h (0 Bft)
17.02.2020 07:02 17,2 C 2,0 C 0,7 C 47 % 91 % 1014,1 hPa 0,0 l/m 0,0 km/h (0 Bft) N 360 0,7 C 2,0 C 0,0 km/h (0 Bft)
17.02.2020 07:00 17,2 C 2,0 C 0,7 C 47 % 91 % 1014,1 hPa 0,0 l/m 0,0 km/h (0 Bft) N 360 0,7 C 2,0 C 0,0 km/h (0 Bft)
17.02.2020 06:58 17,2 C 2,0 C 0,6 C 47 % 91 % 1014,1 hPa 0,0 l/m 0,0 km/h (0 Bft) NW 315 0,7 C 2,0 C 0,0 km/h (0 Bft)
17.02.2020 06:56 17,2 C 2,1 C 0,6 C 47 % 91 % 1014,1 hPa 0,0 l/m 0,0 km/h (0 Bft) NO 45 0,8 C 2,1 C 0,0 km/h (0 Bft)
17.02.2020 06:54 17,2 C 2,0 C 0,7 C 47 % 91 % 1014,1 hPa 0,0 l/m 0,0 km/h (0 Bft) W 270 0,7 C 2,0 C 0,0 km/h (0 Bft)
17.02.2020 06:52 17,3 C 2,2 C 0,7 C 47 % 91 % 1014,1 hPa 0,0 l/m 0,0 km/h (0 Bft) S 180 0,9 C 2,2 C 0,0 km/h (0 Bft)
17.02.2020 06:50 17,2 C 2,3 C 0,8 C 47 % 91 % 1014,1 hPa 0,0 l/m 0,0 km/h (0 Bft) O-NO 67 1,0 C 2,3 C 0,0 km/h (0 Bft)
17.02.2020 06:48 17,2 C 2,3 C 0,8 C 47 % 91 % 1014,1 hPa 0,0 l/m 0,2 km/h (0 Bft) NW 315 1,0 C 2,3 C 0,0 km/h (0 Bft)
17.02.2020 06:46 17,2 C 2,4 C 0,9 C 46 % 91 % 1014,1 hPa 0,0 l/m 0,2 km/h (0 Bft) S-SW 202 1,1 C 2,4 C 0,0 km/h (0 Bft)
17.02.2020 06:44 17,2 C 2,5 C 0,9 C 46 % 91 % 1014,4 hPa 0,0 l/m 0,2 km/h (0 Bft) SO 135 1,2 C 2,5 C 0,0 km/h (0 Bft)
17.02.2020 06:42 17,4 C 2,9 C 0,9 C 46 % 90 % 1014,4 hPa 0,0 l/m 0,2 km/h (0 Bft) N-NO 22 1,4 C 2,9 C 0,0 km/h (0 Bft)
17.02.2020 06:40 17,4 C 2,9 C 1,0 C 46 % 91 % 1014,4 hPa 0,0 l/m 0,2 km/h (0 Bft) S 180 1,6 C 2,9 C 5,1 km/h (1 Bft)
17.02.2020 06:38 17,4 C 2,7 C 0,8 C 46 % 90 % 1014,4 hPa 0,0 l/m 0,2 km/h (0 Bft) NO 45 1,2 C 2,7 C 5,1 km/h (1 Bft)
17.02.2020 06:36 17,4 C 2,6 C 0,8 C 46 % 91 % 1014,4 hPa 0,0 l/m 0,0 km/h (0 Bft) O-NO 67 1,3 C 2,6 C 0,0 km/h (0 Bft)
17.02.2020 06:34 17,4 C 2,6 C 0,8 C 46 % 91 % 1014,4 hPa 0,0 l/m 0,0 km/h (0 Bft) NW 315 1,3 C 2,6 C 0,0 km/h (0 Bft)
17.02.2020 06:32 17,5 C 2,4 C 0,8 C 46 % 91 % 1014,4 hPa 0,0 l/m 0,0 km/h (0 Bft) O-NO 67 1,1 C 2,4 C 0,0 km/h (0 Bft)
17.02.2020 06:30 17,5 C 2,4 C 0,8 C 46 % 91 % 1014,4 hPa 0,0 l/m 0,0 km/h (0 Bft) N-NO 22 1,1 C 2,4 C 0,0 km/h (0 Bft)
17.02.2020 06:28 17,6 C 2,3 C 0,8 C 46 % 91 % 1014,4 hPa 0,0 l/m 0,0 km/h (0 Bft) NW 315 1,0 C 2,3 C 0,0 km/h (0 Bft)
17.02.2020 06:26 17,6 C 2,3 C 0,8 C 46 % 91 % 1014,4 hPa 0,0 l/m 0,0 km/h (0 Bft) O-NO 67 1,0 C 2,3 C 0,0 km/h (0 Bft)
17.02.2020 06:24 17,6 C 2,4 C 0,8 C 47 % 91 % 1014,6 hPa 0,0 l/m 0,0 km/h (0 Bft) N-NW 337 1,1 C 2,4 C 0,0 km/h (0 Bft)
17.02.2020 06:22 17,6 C 2,2 C 0,8 C 47 % 91 % 1014,6 hPa 0,0 l/m 0,0 km/h (0 Bft) N-NO 22 0,9 C 2,2 C 0,0 km/h (0 Bft)
17.02.2020 06:20 17,6 C 2,2 C 0,8 C 48 % 91 % 1014,6 hPa 0,0 l/m 0,0 km/h (0 Bft) N 360 0,9 C 2,2 C 0,0 km/h (0 Bft)
17.02.2020 06:18 17,6 C 2,3 C 0,8 C 48 % 91 % 1014,6 hPa 0,0 l/m 0,0 km/h (0 Bft) N-NO 22 1,0 C 2,3 C 0,0 km/h (0 Bft)
17.02.2020 06:16 17,7 C 2,2 C 0,8 C 48 % 91 % 1014,6 hPa 0,0 l/m 0,0 km/h (0 Bft) N 360 0,9 C 2,2 C 0,0 km/h (0 Bft)
17.02.2020 06:14 17,7 C 2,2 C 0,8 C 48 % 91 % 1014,6 hPa 0,0 l/m 0,0 km/h (0 Bft) SO 135 0,9 C 2,2 C 0,0 km/h (0 Bft)
17.02.2020 06:12 17,7 C 2,2 C 0,8 C 48 % 91 % 1014,6 hPa 0,0 l/m 0,0 km/h (0 Bft) N-NO 22 0,9 C 2,2 C 0,0 km/h (0 Bft)
17.02.2020 06:10 17,7 C 2,2 C 0,8 C 48 % 91 % 1014,6 hPa 0,0 l/m 0,0 km/h (0 Bft) S 180 0,9 C 2,2 C 0,0 km/h (0 Bft)
17.02.2020 06:08 17,7 C 2,2 C 0,8 C 48 % 91 % 1014,6 hPa 0,0 l/m 0,0 km/h (0 Bft) S 180 0,9 C 2,2 C 0,0 km/h (0 Bft)
17.02.2020 06:06 17,7 C 2,2 C 0,8 C 47 % 91 % 1014,6 hPa 0,0 l/m 0,0 km/h (0 Bft) S 180 0,9 C 2,2 C 0,0 km/h (0 Bft)
17.02.2020 06:04 17,8 C 2,2 C 0,8 C 47 % 91 % 1014,4 hPa 0,0 l/m 0,0 km/h (0 Bft) S 180 0,9 C 2,2 C 0,0 km/h (0 Bft)
17.02.2020 06:02 17,8 C 2,2 C 0,8 C 47 % 91 % 1014,4 hPa 0,0 l/m 0,0 km/h (0 Bft) S 180 0,9 C 2,2 C 0,0 km/h (0 Bft)
17.02.2020 06:00 17,8 C 2,2 C 0,8 C 47 % 91 % 1014,4 hPa 0,0 l/m 0,0 km/h (0 Bft) S-SO 157 0,9 C 2,2 C 0,0 km/h (0 Bft)
17.02.2020 05:58 17,8 C 2,2 C 0,8 C 47 % 91 % 1014,4 hPa 0,0 l/m 0,0 km/h (0 Bft) N-NO 22 0,9 C 2,2 C 0,0 km/h (0 Bft)
17.02.2020 05:56 17,8 C 2,3 C 0,8 C 47 % 91 % 1014,4 hPa 0,0 l/m 0,0 km/h (0 Bft) S 180 1,0 C 2,3 C 0,0 km/h (0 Bft)
17.02.2020 05:54 17,8 C 2,3 C 0,9 C 47 % 91 % 1014,4 hPa 0,0 l/m 0,0 km/h (0 Bft) S 180 1,0 C 2,3 C 0,0 km/h (0 Bft)
17.02.2020 05:52 17,8 C 2,3 C 0,9 C 47 % 91 % 1014,4 hPa 0,0 l/m 0,0 km/h (0 Bft) N-NO 22 1,0 C 2,3 C 0,0 km/h (0 Bft)
17.02.2020 05:50 17,8 C 2,3 C 0,9 C 47 % 91 % 1014,4 hPa 0,0 l/m 0,0 km/h (0 Bft) N-NW 337 1,0 C 2,3 C 0,0 km/h (0 Bft)
17.02.2020 05:48 17,8 C 2,2 C 0,9 C 47 % 91 % 1014,4 hPa 0,0 l/m 0,0 km/h (0 Bft) S 180 0,9 C 2,2 C 0,0 km/h (0 Bft)
17.02.2020 05:46 17,8 C 2,2 C 0,9 C 47 % 91 % 1014,4 hPa 0,0 l/m 0,0 km/h (0 Bft) SO 135 0,9 C 2,2 C 0,0 km/h (0 Bft)
17.02.2020 05:44 17,9 C 2,3 C 0,9 C 47 % 91 % 1014,6 hPa 0,0 l/m 0,2 km/h (0 Bft) N-NO 22 1,0 C 2,3 C 0,0 km/h (0 Bft)
17.02.2020 05:42 17,9 C 2,2 C 0,9 C 46 % 91 % 1014,6 hPa 0,0 l/m 0,2 km/h (0 Bft) N-NO 22 0,9 C 2,2 C 0,0 km/h (0 Bft)
17.02.2020 05:40 17,9 C 2,1 C 0,9 C 46 % 90 % 1014,6 hPa 0,0 l/m 0,2 km/h (0 Bft) NW 315 0,6 C 2,1 C 0,0 km/h (0 Bft)
17.02.2020 05:38 17,9 C 2,2 C 0,9 C 46 % 90 % 1014,6 hPa 0,0 l/m 0,2 km/h (0 Bft) N-NO 22 0,7 C 2,2 C 0,0 km/h (0 Bft)
17.02.2020 05:36 18,0 C 2,4 C 1,0 C 46 % 91 % 1014,6 hPa 0,0 l/m 0,2 km/h (0 Bft) N-NW 337 1,1 C 2,4 C 0,0 km/h (0 Bft)
17.02.2020 05:34 18,0 C 2,2 C 1,0 C 46 % 90 % 1014,6 hPa 0,0 l/m 0,2 km/h (0 Bft) O 90 0,7 C 2,2 C 0,0 km/h (0 Bft)
17.02.2020 05:32 18,0 C 2,2 C 0,9 C 46 % 90 % 1014,6 hPa 0,0 l/m 0,0 km/h (0 Bft) O 90 0,7 C 2,2 C 0,0 km/h (0 Bft)
17.02.2020 05:30 18,0 C 2,2 C 1,0 C 46 % 90 % 1014,6 hPa 0,0 l/m 0,0 km/h (0 Bft) NW 315 0,7 C 2,2 C 0,0 km/h (0 Bft)
17.02.2020 05:28 18,1 C 2,2 C 0,9 C 46 % 90 % 1014,6 hPa 0,0 l/m 0,0 km/h (0 Bft) SW 225 0,7 C 2,2 C 0,0 km/h (0 Bft)
17.02.2020 05:26 18,1 C 2,2 C 0,9 C 46 % 90 % 1014,6 hPa 0,0 l/m 0,0 km/h (0 Bft) SO 135 0,7 C 2,2 C 0,0 km/h (0 Bft)
17.02.2020 05:24 18,2 C 2,2 C 0,9 C 47 % 90 % 1014,6 hPa 0,0 l/m 0,0 km/h (0 Bft) NW 315 0,7 C 2,2 C 0,0 km/h (0 Bft)
17.02.2020 05:22 18,2 C 2,2 C 0,9 C 48 % 90 % 1014,6 hPa 0,0 l/m 0,0 km/h (0 Bft) O 90 0,7 C 2,2 C 0,0 km/h (0 Bft)
17.02.2020 05:20 18,2 C 2,3 C 0,9 C 48 % 90 % 1014,6 hPa 0,0 l/m 0,0 km/h (0 Bft) N-NW 337 0,8 C 2,3 C 0,0 km/h (0 Bft)
17.02.2020 05:18 18,2 C 2,3 C 1,0 C 48 % 90 % 1014,6 hPa 0,0 l/m 0,0 km/h (0 Bft) N-NW 337 0,8 C 2,3 C 0,0 km/h (0 Bft)
17.02.2020 05:16 18,2 C 2,3 C 1,0 C 48 % 90 % 1014,6 hPa 0,0 l/m 0,0 km/h (0 Bft) NW 315 0,8 C 2,3 C 0,0 km/h (0 Bft)
17.02.2020 05:14 18,2 C 2,3 C 1,0 C 48 % 90 % 1014,6 hPa 0,0 l/m 0,0 km/h (0 Bft) N-NO 22 0,8 C 2,3 C 0,0 km/h (0 Bft)
17.02.2020 05:12 18,2 C 2,3 C 1,0 C 48 % 90 % 1014,6 hPa 0,0 l/m 0,0 km/h (0 Bft) N-NW 337 0,8 C 2,3 C 0,0 km/h (0 Bft)
17.02.2020 05:10 18,2 C 2,2 C 0,9 C 48 % 90 % 1014,6 hPa 0,0 l/m 0,0 km/h (0 Bft) S-SW 202 0,7 C 2,2 C 0,0 km/h (0 Bft)
17.02.2020 05:08 18,2 C 2,1 C 0,9 C 48 % 90 % 1014,6 hPa 0,0 l/m 0,0 km/h (0 Bft) O 90 0,6 C 2,1 C 0,0 km/h (0 Bft)
17.02.2020 05:06 18,2 C 2,2 C 0,9 C 48 % 90 % 1014,6 hPa 0,0 l/m 0,0 km/h (0 Bft) N-NO 22 0,7 C 2,2 C 0,0 km/h (0 Bft)
17.02.2020 05:04 18,3 C 2,2 C 0,9 C 48 % 90 % 1014,4 hPa 0,0 l/m 0,0 km/h (0 Bft) N-NW 337 0,7 C 2,2 C 0,0 km/h (0 Bft)
17.02.2020 05:02 18,3 C 2,2 C 1,0 C 48 % 90 % 1014,4 hPa 0,0 l/m 0,2 km/h (0 Bft) N-NW 337 0,7 C 2,2 C 0,0 km/h (0 Bft)
17.02.2020 05:00 18,3 C 2,2 C 0,9 C 48 % 90 % 1014,4 hPa 0,0 l/m 0,2 km/h (0 Bft) N-NW 337 0,7 C 2,2 C 0,0 km/h (0 Bft)
17.02.2020 04:58 18,2 C 2,2 C 0,9 C 48 % 90 % 1014,4 hPa 0,0 l/m 0,2 km/h (0 Bft) N-NO 22 0,7 C 2,2 C 0,0 km/h (0 Bft)
17.02.2020 04:56 18,2 C 2,1 C 1,0 C 48 % 90 % 1014,4 hPa 0,0 l/m 0,2 km/h (0 Bft) N-NW 337 0,6 C 2,1 C 0,0 km/h (0 Bft)
17.02.2020 04:54 18,4 C 2,0 C 1,0 C 48 % 90 % 1014,4 hPa 0,0 l/m 0,2 km/h (0 Bft) W-SW 247 0,5 C 2,0 C 3,4 km/h (1 Bft)
17.02.2020 04:52 18,4 C 2,0 C 1,1 C 48 % 90 % 1014,4 hPa 0,0 l/m 0,2 km/h (0 Bft) SO 135 0,5 C 2,0 C 3,4 km/h (1 Bft)
17.02.2020 04:50 18,4 C 2,0 C 1,1 C 48 % 90 % 1014,4 hPa 0,0 l/m 0,2 km/h (0 Bft) O-SO 112 0,5 C 2,0 C 0,0 km/h (0 Bft)
17.02.2020 04:48 18,4 C 2,0 C 1,1 C 48 % 90 % 1014,4 hPa 0,0 l/m 0,7 km/h (0 Bft) SO 135 0,5 C 2,0 C 0,0 km/h (0 Bft)
17.02.2020 04:46 18,4 C 2,2 C 1,3 C 48 % 90 % 1014,4 hPa 0,0 l/m 0,7 km/h (0 Bft) S 180 0,7 C 2,2 C 7,5 km/h (2 Bft)
17.02.2020 04:44 18,4 C 2,2 C 1,3 C 48 % 90 % 1014,8 hPa 0,0 l/m 0,7 km/h (0 Bft) SO 135 0,7 C 2,2 C 0,0 km/h (0 Bft)
17.02.2020 04:42 18,4 C 2,2 C 1,3 C 48 % 90 % 1014,8 hPa 0,0 l/m 0,7 km/h (0 Bft) NO 45 0,7 C 2,2 C 0,0 km/h (0 Bft)
17.02.2020 04:40 18,4 C 2,2 C 1,3 C 48 % 90 % 1014,8 hPa 0,0 l/m 1,0 km/h (0 Bft) W 270 0,7 C 2,2 C 4,1 km/h (1 Bft)
17.02.2020 04:38 18,4 C 2,1 C 1,1 C 48 % 90 % 1014,8 hPa 0,0 l/m 0,2 km/h (0 Bft) SO 135 0,6 C 2,1 C 4,1 km/h (1 Bft)
17.02.2020 04:36 18,5 C 2,2 C 1,1 C 48 % 90 % 1014,8 hPa 0,0 l/m 0,2 km/h (0 Bft) N-NO 22 0,7 C 2,2 C 0,0 km/h (0 Bft)
17.02.2020 04:34 18,4 C 2,2 C 1,1 C 48 % 90 % 1014,8 hPa 0,0 l/m 0,2 km/h (0 Bft) N-NW 337 0,7 C 2,2 C 0,0 km/h (0 Bft)
17.02.2020 04:32 18,5 C 2,3 C 1,1 C 47 % 90 % 1014,8 hPa 0,0 l/m 0,2 km/h (0 Bft) S 180 0,8 C 2,3 C 0,0 km/h (0 Bft)
17.02.2020 04:30 18,5 C 2,2 C 1,1 C 48 % 90 % 1014,8 hPa 0,0 l/m 0,2 km/h (0 Bft) SO 135 0,7 C 2,2 C 0,0 km/h (0 Bft)
17.02.2020 04:28 18,5 C 2,2 C 1,1 C 48 % 90 % 1014,8 hPa 0,0 l/m 0,0 km/h (0 Bft) SO 135 0,7 C 2,2 C 0,0 km/h (0 Bft)
17.02.2020 04:26 18,6 C 2,3 C 1,1 C 47 % 90 % 1014,8 hPa 0,0 l/m 0,0 km/h (0 Bft) S 180 0,8 C 2,3 C 0,0 km/h (0 Bft)
17.02.2020 04:24 18,6 C 2,2 C 1,0 C 47 % 90 % 1014,9 hPa 0,0 l/m 0,0 km/h (0 Bft) S-SW 202 0,7 C 2,2 C 0,0 km/h (0 Bft)
17.02.2020 04:22 18,6 C 2,1 C 1,0 C 47 % 90 % 1014,9 hPa 0,0 l/m 0,0 km/h (0 Bft) NO 45 0,6 C 2,1 C 0,0 km/h (0 Bft)
17.02.2020 04:20 18,6 C 2,1 C 1,0 C 47 % 90 % 1014,9 hPa 0,0 l/m 0,0 km/h (0 Bft) O 90 0,6 C 2,1 C 0,0 km/h (0 Bft)
17.02.2020 04:18 18,6 C 2,0 C 1,0 C 47 % 90 % 1014,9 hPa 0,0 l/m 0,0 km/h (0 Bft) NW 315 0,5 C 2,0 C 0,0 km/h (0 Bft)
17.02.2020 04:16 18,6 C 2,0 C 0,9 C 47 % 90 % 1014,9 hPa 0,0 l/m 0,0 km/h (0 Bft) SO 135 0,5 C 2,0 C 0,0 km/h (0 Bft)
17.02.2020 04:14 18,6 C 2,0 C 0,9 C 47 % 89 % 1014,9 hPa 0,0 l/m 0,0 km/h (0 Bft) S-SO 157 0,4 C 2,0 C 0,0 km/h (0 Bft)
17.02.2020 04:12 18,7 C 1,9 C 0,9 C 47 % 89 % 1014,9 hPa 0,0 l/m 0,0 km/h (0 Bft) S 180 0,3 C 1,9 C 0,0 km/h (0 Bft)
17.02.2020 04:10 18,7 C 2,0 C 0,8 C 47 % 89 % 1014,9 hPa 0,0 l/m 0,0 km/h (0 Bft) S-SO 157 0,4 C 2,0 C 0,0 km/h (0 Bft)
17.02.2020 04:08 18,7 C 2,0 C 0,8 C 47 % 89 % 1014,9 hPa 0,0 l/m 0,0 km/h (0 Bft) SO 135 0,4 C 2,0 C 0,0 km/h (0 Bft)
17.02.2020 04:06 18,7 C 2,0 C 0,8 C 47 % 89 % 1014,9 hPa 0,0 l/m 0,0 km/h (0 Bft) SW 225 0,4 C 2,0 C 0,0 km/h (0 Bft)
17.02.2020 04:04 18,7 C 2,1 C 0,7 C 47 % 89 % 1014,8 hPa 0,0 l/m 0,0 km/h (0 Bft) S 180 0,5 C 2,1 C 0,0 km/h (0 Bft)
17.02.2020 04:02 18,7 C 2,1 C 0,8 C 47 % 89 % 1014,8 hPa 0,0 l/m 0,0 km/h (0 Bft) SW 225 0,5 C 2,1 C 0,0 km/h (0 Bft)
17.02.2020 04:00 18,8 C 2,2 C 0,8 C 47 % 89 % 1014,8 hPa 0,0 l/m 0,0 km/h (0 Bft) S-SO 157 0,6 C 2,2 C 0,0 km/h (0 Bft)
17.02.2020 03:58 18,8 C 2,2 C 0,8 C 47 % 89 % 1014,8 hPa 0,0 l/m 0,0 km/h (0 Bft) N-NO 22 0,6 C 2,2 C 0,0 km/h (0 Bft)
17.02.2020 03:56 18,8 C 2,2 C 0,7 C 47 % 89 % 1014,8 hPa 0,0 l/m 0,0 km/h (0 Bft) N-NO 22 0,6 C 2,2 C 0,0 km/h (0 Bft)
17.02.2020 03:54 18,8 C 2,3 C 0,7 C 47 % 89 % 1014,8 hPa 0,0 l/m 0,0 km/h (0 Bft) N-NO 22 0,7 C 2,3 C 0,0 km/h (0 Bft)
17.02.2020 03:52 18,8 C 2,3 C 0,7 C 47 % 89 % 1014,8 hPa 0,0 l/m 0,0 km/h (0 Bft) N-NO 22 0,7 C 2,3 C 0,0 km/h (0 Bft)
17.02.2020 03:50 18,8 C 2,1 C 0,7 C 47 % 89 % 1014,8 hPa 0,0 l/m 0,0 km/h (0 Bft) N-NW 337 0,5 C 2,1 C 0,0 km/h (0 Bft)
17.02.2020 03:48 18,8 C 2,0 C 0,7 C 47 % 89 % 1014,8 hPa 0,0 l/m 0,0 km/h (0 Bft) O-NO 67 0,4 C 2,0 C 0,0 km/h (0 Bft)
17.02.2020 03:46 18,8 C 2,0 C 0,7 C 47 % 89 % 1014,8 hPa 0,0 l/m 0,0 km/h (0 Bft) SO 135 0,4 C 2,0 C 0,0 km/h (0 Bft)
17.02.2020 03:44 18,8 C 1,9 C 0,7 C 47 % 89 % 1014,6 hPa 0,0 l/m 0,0 km/h (0 Bft) N-NW 337 0,3 C 1,9 C 0,0 km/h (0 Bft)
17.02.2020 03:42 18,9 C 1,7 C 0,7 C 47 % 89 % 1014,6 hPa 0,0 l/m 0,0 km/h (0 Bft) N-NW 337 0,1 C 1,7 C 0,0 km/h (0 Bft)
17.02.2020 03:40 18,9 C 1,6 C 0,8 C 47 % 89 % 1014,6 hPa 0,0 l/m 0,0 km/h (0 Bft) SW 225 -0,0 C 1,6 C 0,0 km/h (0 Bft)
17.02.2020 03:38 18,9 C 1,7 C 0,8 C 47 % 89 % 1014,6 hPa 0,0 l/m 0,5 km/h (0 Bft) S 180 0,1 C 1,7 C 0,0 km/h (0 Bft)
17.02.2020 03:36 18,9 C 1,7 C 0,8 C 47 % 89 % 1014,6 hPa 0,0 l/m 0,5 km/h (0 Bft) SW 225 0,1 C 1,7 C 0,0 km/h (0 Bft)
17.02.2020 03:34 18,9 C 1,9 C 0,9 C 47 % 89 % 1014,6 hPa 0,0 l/m 0,5 km/h (0 Bft) S 180 0,3 C 1,9 C 0,0 km/h (0 Bft)
17.02.2020 03:32 19,0 C 2,0 C 0,9 C 47 % 89 % 1014,6 hPa 0,0 l/m 0,5 km/h (0 Bft) S-SO 157 0,4 C 2,0 C 0,0 km/h (0 Bft)
17.02.2020 03:30 19,0 C 2,1 C 0,9 C 47 % 89 % 1014,6 hPa 0,0 l/m 0,5 km/h (0 Bft) S 180 0,5 C 2,1 C 3,9 km/h (1 Bft)
17.02.2020 03:28 19,0 C 2,3 C 1,0 C 47 % 89 % 1014,6 hPa 0,0 l/m 0,5 km/h (0 Bft) S-SO 157 0,7 C 2,3 C 3,9 km/h (1 Bft)
17.02.2020 03:26 19,0 C 2,3 C 0,9 C 47 % 89 % 1014,6 hPa 0,0 l/m 0,0 km/h (0 Bft) O-SO 112 0,7 C 2,3 C 0,0 km/h (0 Bft)
17.02.2020 03:24 19,0 C 2,3 C 0,9 C 47 % 89 % 1014,9 hPa 0,0 l/m 0,0 km/h (0 Bft) N-NO 22 0,7 C 2,3 C 0,0 km/h (0 Bft)
17.02.2020 03:22 19,0 C 2,1 C 0,8 C 47 % 89 % 1014,9 hPa 0,0 l/m 0,0 km/h (0 Bft) S-SO 157 0,5 C 2,1 C 0,0 km/h (0 Bft)
17.02.2020 03:20 19,0 C 2,1 C 0,8 C 47 % 88 % 1014,9 hPa 0,0 l/m 0,0 km/h (0 Bft) N-NO 22 0,3 C 2,1 C 0,0 km/h (0 Bft)
17.02.2020 03:18 19,1 C 2,2 C 0,8 C 47 % 89 % 1014,9 hPa 0,0 l/m 0,0 km/h (0 Bft) W-NW 292 0,6 C 2,2 C 0,0 km/h (0 Bft)
17.02.2020 03:16 19,1 C 2,3 C 0,9 C 47 % 89 % 1014,9 hPa 0,0 l/m 0,0 km/h (0 Bft) N-NW 337 0,7 C 2,3 C 0,0 km/h (0 Bft)
17.02.2020 03:14 19,1 C 2,3 C 0,9 C 47 % 88 % 1014,9 hPa 0,0 l/m 0,0 km/h (0 Bft) N-NO 22 0,5 C 2,3 C 0,0 km/h (0 Bft)
17.02.2020 03:12 19,1 C 2,3 C 0,9 C 47 % 89 % 1014,9 hPa 0,0 l/m 0,0 km/h (0 Bft) N-NO 22 0,7 C 2,3 C 3,4 km/h (1 Bft)
17.02.2020 03:10 19,1 C 2,4 C 0,8 C 47 % 88 % 1014,9 hPa 0,0 l/m 0,5 km/h (0 Bft) N-NO 22 0,6 C 2,4 C 3,4 km/h (1 Bft)
17.02.2020 03:08 19,2 C 2,4 C 0,8 C 47 % 88 % 1014,9 hPa 0,0 l/m 0,5 km/h (0 Bft) N-NO 22 0,6 C 2,4 C 3,4 km/h (1 Bft)
17.02.2020 03:06 19,2 C 2,4 C 0,8 C 47 % 88 % 1014,9 hPa 0,0 l/m 0,5 km/h (0 Bft) N-NO 22 0,6 C 2,4 C 7,2 km/h (2 Bft)
17.02.2020 03:04 19,2 C 2,4 C 0,8 C 47 % 88 % 1014,8 hPa 0,0 l/m 0,5 km/h (0 Bft) N-NO 22 0,6 C 2,4 C 3,4 km/h (1 Bft)
17.02.2020 03:02 19,2 C 2,4 C 0,8 C 47 % 88 % 1014,8 hPa 0,0 l/m 0,5 km/h (0 Bft) N-NO 22 0,6 C 2,4 C 3,9 km/h (1 Bft)
17.02.2020 03:00 19,2 C 2,3 C 0,7 C 47 % 88 % 1014,8 hPa 0,0 l/m 0,0 km/h (0 Bft) NO 45 0,5 C 2,3 C 3,9 km/h (1 Bft)
17.02.2020 02:58 19,2 C 2,4 C 0,8 C 47 % 88 % 1014,8 hPa 0,0 l/m 0,0 km/h (0 Bft) NO 45 0,6 C 2,4 C 0,0 km/h (0 Bft)
17.02.2020 02:56 19,3 C 2,5 C 0,8 C 47 % 88 % 1014,8 hPa 0,0 l/m 0,0 km/h (0 Bft) N-NW 337 0,7 C 2,5 C 0,0 km/h (0 Bft)
17.02.2020 02:54 19,3 C 2,5 C 0,7 C 47 % 88 % 1014,8 hPa 0,0 l/m 0,0 km/h (0 Bft) N-NO 22 0,7 C 2,5 C 0,0 km/h (0 Bft)
17.02.2020 02:52 19,2 C 2,4 C 0,7 C 47 % 88 % 1014,8 hPa 0,0 l/m 0,0 km/h (0 Bft) N-NW 337 0,6 C 2,4 C 0,0 km/h (0 Bft)
17.02.2020 02:50 19,2 C 2,4 C 0,8 C 47 % 88 % 1014,8 hPa 0,0 l/m 0,0 km/h (0 Bft) SO 135 0,6 C 2,4 C 0,0 km/h (0 Bft)
17.02.2020 02:48 19,2 C 2,4 C 0,8 C 47 % 88 % 1014,8 hPa 0,0 l/m 0,0 km/h (0 Bft) S 180 0,6 C 2,4 C 0,0 km/h (0 Bft)
17.02.2020 02:46 19,4 C 2,3 C 0,8 C 47 % 88 % 1014,8 hPa 0,0 l/m 0,0 km/h (0 Bft) S-SO 157 0,5 C 2,3 C 0,0 km/h (0 Bft)
17.02.2020 02:44 19,4 C 2,3 C 0,8 C 47 % 88 % 1015,0 hPa 0,0 l/m 0,0 km/h (0 Bft) SO 135 0,5 C 2,3 C 0,0 km/h (0 Bft)
17.02.2020 02:42 19,4 C 2,3 C 0,8 C 47 % 88 % 1015,0 hPa 0,0 l/m 0,0 km/h (0 Bft) SO 135 0,5 C 2,3 C 0,0 km/h (0 Bft)
17.02.2020 02:40 19,4 C 2,4 C 0,8 C 47 % 88 % 1015,0 hPa 0,0 l/m 0,0 km/h (0 Bft) S 180 0,6 C 2,4 C 0,0 km/h (0 Bft)
17.02.2020 02:38 19,4 C 2,4 C 0,7 C 47 % 88 % 1015,0 hPa 0,0 l/m 0,0 km/h (0 Bft) S 180 0,6 C 2,4 C 0,0 km/h (0 Bft)
17.02.2020 02:36 19,4 C 2,3 C 0,7 C 47 % 88 % 1015,0 hPa 0,0 l/m 0,0 km/h (0 Bft) S-SW 202 0,5 C 2,3 C 0,0 km/h (0 Bft)
17.02.2020 02:34 19,4 C 2,3 C 0,8 C 47 % 88 % 1015,0 hPa 0,0 l/m 0,0 km/h (0 Bft) S-SW 202 0,5 C 2,3 C 0,0 km/h (0 Bft)
17.02.2020 02:32 19,5 C 2,4 C 0,8 C 47 % 88 % 1015,0 hPa 0,0 l/m 0,0 km/h (0 Bft) S-SW 202 0,6 C 2,4 C 0,0 km/h (0 Bft)
17.02.2020 02:30 19,5 C 2,5 C 0,8 C 46 % 88 % 1015,0 hPa 0,0 l/m 0,0 km/h (0 Bft) S 180 0,7 C 2,5 C 0,0 km/h (0 Bft)
17.02.2020 02:28 19,5 C 2,6 C 0,9 C 46 % 88 % 1015,0 hPa 0,0 l/m 0,0 km/h (0 Bft) S-SW 202 0,8 C 2,6 C 0,0 km/h (0 Bft)
17.02.2020 02:26 19,5 C 2,8 C 0,9 C 47 % 86 % 1015,0 hPa 0,0 l/m 0,0 km/h (0 Bft) S-SW 202 0,7 C 2,8 C 0,0 km/h (0 Bft)
17.02.2020 02:24 19,5 C 2,5 C 0,8 C 46 % 87 % 1015,2 hPa 0,0 l/m 0,0 km/h (0 Bft) N-NO 22 0,6 C 2,5 C 0,0 km/h (0 Bft)
17.02.2020 02:22 19,6 C 2,5 C 0,9 C 46 % 87 % 1015,2 hPa 0,0 l/m 0,0 km/h (0 Bft) N-NO 22 0,6 C 2,5 C 0,0 km/h (0 Bft)
17.02.2020 02:20 19,6 C 2,6 C 0,9 C 46 % 87 % 1015,2 hPa 0,0 l/m 0,0 km/h (0 Bft) O-NO 67 0,7 C 2,6 C 0,0 km/h (0 Bft)
17.02.2020 02:18 19,6 C 2,9 C 1,0 C 46 % 86 % 1015,2 hPa 0,0 l/m 0,0 km/h (0 Bft) S 180 0,8 C 2,9 C 0,0 km/h (0 Bft)
17.02.2020 02:16 19,6 C 3,1 C 1,1 C 46 % 86 % 1015,2 hPa 0,0 l/m 0,0 km/h (0 Bft) SO 135 1,0 C 3,1 C 0,0 km/h (0 Bft)
17.02.2020 02:14 19,6 C 3,1 C 1,2 C 46 % 86 % 1015,2 hPa 0,0 l/m 0,0 km/h (0 Bft) O-NO 67 1,0 C 3,1 C 0,0 km/h (0 Bft)
17.02.2020 02:12 19,6 C 3,1 C 1,1 C 46 % 86 % 1015,2 hPa 0,0 l/m 0,0 km/h (0 Bft) NO 45 1,0 C 3,1 C 0,0 km/h (0 Bft)
17.02.2020 02:10 19,6 C 3,2 C 1,2 C 46 % 86 % 1015,2 hPa 0,0 l/m 0,0 km/h (0 Bft) N-NO 22 1,1 C 3,2 C 0,0 km/h (0 Bft)
17.02.2020 02:08 19,7 C 3,2 C 1,2 C 46 % 86 % 1015,2 hPa 0,0 l/m 0,0 km/h (0 Bft) N 360 1,1 C 3,2 C 0,0 km/h (0 Bft)
17.02.2020 02:06 19,7 C 3,1 C 1,2 C 46 % 86 % 1015,2 hPa 0,0 l/m 0,0 km/h (0 Bft) N-NO 22 1,0 C 3,1 C 0,0 km/h (0 Bft)
17.02.2020 02:04 19,7 C 3,0 C 1,1 C 46 % 86 % 1015,5 hPa 0,0 l/m 0,0 km/h (0 Bft) N-NO 22 0,9 C 3,0 C 0,0 km/h (0 Bft)
17.02.2020 02:02 19,7 C 2,9 C 1,1 C 46 % 86 % 1015,5 hPa 0,0 l/m 0,0 km/h (0 Bft) N-NO 22 0,8 C 2,9 C 0,0 km/h (0 Bft)
17.02.2020 02:00 19,7 C 2,8 C 1,0 C 46 % 86 % 1015,5 hPa 0,0 l/m 0,0 km/h (0 Bft) N-NO 22 0,7 C 2,8 C 0,0 km/h (0 Bft)
17.02.2020 01:58 19,8 C 2,8 C 0,8 C 46 % 86 % 1015,5 hPa 0,0 l/m 0,0 km/h (0 Bft) N-NO 22 0,7 C 2,8 C 0,0 km/h (0 Bft)
17.02.2020 01:56 19,8 C 2,8 C 0,9 C 46 % 86 % 1015,5 hPa 0,0 l/m 0,0 km/h (0 Bft) N-NW 337 0,7 C 2,8 C 0,0 km/h (0 Bft)
17.02.2020 01:54 19,8 C 2,8 C 0,9 C 46 % 86 % 1015,5 hPa 0,0 l/m 0,0 km/h (0 Bft) SO 135 0,7 C 2,8 C 0,0 km/h (0 Bft)
17.02.2020 01:52 19,8 C 2,6 C 0,9 C 46 % 86 % 1015,5 hPa 0,0 l/m 0,0 km/h (0 Bft) W-SW 247 0,5 C 2,6 C 0,0 km/h (0 Bft)
17.02.2020 01:50 19,8 C 2,5 C 0,8 C 46 % 86 % 1015,5 hPa 0,0 l/m 0,0 km/h (0 Bft) N-NO 22 0,4 C 2,5 C 0,0 km/h (0 Bft)
17.02.2020 01:48 19,8 C 2,5 C 0,8 C 46 % 86 % 1015,5 hPa 0,0 l/m 0,0 km/h (0 Bft) NW 315 0,4 C 2,5 C 0,0 km/h (0 Bft)
17.02.2020 01:46 19,9 C 2,5 C 0,8 C 46 % 86 % 1015,5 hPa 0,0 l/m 0,0 km/h (0 Bft) SW 225 0,4 C 2,5 C 0,0 km/h (0 Bft)
17.02.2020 01:44 19,9 C 2,6 C 0,9 C 46 % 86 % 1015,2 hPa 0,0 l/m 0,0 km/h (0 Bft) N 360 0,5 C 2,6 C 0,0 km/h (0 Bft)
17.02.2020 01:42 20,0 C 2,8 C 0,9 C 46 % 86 % 1015,2 hPa 0,0 l/m 0,0 km/h (0 Bft) S 180 0,7 C 2,8 C 0,0 km/h (0 Bft)
17.02.2020 01:40 20,0 C 2,8 C 1,0 C 46 % 86 % 1015,2 hPa 0,0 l/m 0,0 km/h (0 Bft) S 180 0,7 C 2,8 C 0,0 km/h (0 Bft)
17.02.2020 01:38 20,0 C 2,8 C 1,0 C 46 % 85 % 1015,2 hPa 0,0 l/m 0,0 km/h (0 Bft) N 360 0,5 C 2,8 C 0,0 km/h (0 Bft)
17.02.2020 01:36 20,0 C 2,8 C 1,1 C 46 % 85 % 1015,2 hPa 0,0 l/m 0,0 km/h (0 Bft) N-NO 22 0,5 C 2,8 C 0,0 km/h (0 Bft)
17.02.2020 01:34 20,0 C 2,9 C 1,2 C 46 % 86 % 1015,2 hPa 0,0 l/m 0,0 km/h (0 Bft) S 180 0,8 C 2,9 C 0,0 km/h (0 Bft)
17.02.2020 01:32 20,0 C 2,8 C 1,2 C 46 % 86 % 1015,2 hPa 0,0 l/m 0,0 km/h (0 Bft) N 360 0,7 C 2,8 C 0,0 km/h (0 Bft)
17.02.2020 01:30 20,0 C 2,6 C 1,2 C 46 % 86 % 1015,2 hPa 0,0 l/m 0,0 km/h (0 Bft) N-NO 22 0,5 C 2,6 C 0,0 km/h (0 Bft)
17.02.2020 01:28 20,1 C 2,5 C 1,1 C 46 % 86 % 1015,2 hPa 0,0 l/m 0,0 km/h (0 Bft) N-NO 22 0,4 C 2,5 C 0,0 km/h (0 Bft)
17.02.2020 01:26 20,1 C 2,4 C 1,0 C 46 % 86 % 1015,2 hPa 0,0 l/m 0,0 km/h (0 Bft) N-NO 22 0,3 C 2,4 C 0,0 km/h (0 Bft)
17.02.2020 01:24 20,1 C 2,3 C 1,0 C 46 % 86 % 1015,4 hPa 0,0 l/m 0,0 km/h (0 Bft) N-NW 337 0,2 C 2,3 C 0,0 km/h (0 Bft)
17.02.2020 01:22 20,1 C 2,4 C 1,0 C 46 % 86 % 1015,4 hPa 0,0 l/m 0,0 km/h (0 Bft) SO 135 0,3 C 2,4 C 0,0 km/h (0 Bft)
17.02.2020 01:20 20,2 C 2,4 C 1,0 C 46 % 86 % 1015,4 hPa 0,0 l/m 0,0 km/h (0 Bft) S 180 0,3 C 2,4 C 0,0 km/h (0 Bft)
17.02.2020 01:18 20,2 C 2,5 C 1,1 C 46 % 86 % 1015,4 hPa 0,0 l/m 0,0 km/h (0 Bft) S 180 0,4 C 2,5 C 0,0 km/h (0 Bft)
17.02.2020 01:16 20,2 C 2,4 C 1,1 C 46 % 86 % 1015,4 hPa 0,0 l/m 0,0 km/h (0 Bft) N-NW 337 0,3 C 2,4 C 0,0 km/h (0 Bft)
17.02.2020 01:14 20,2 C 2,4 C 1,1 C 46 % 85 % 1015,4 hPa 0,0 l/m 0,0 km/h (0 Bft) N 360 0,1 C 2,4 C 0,0 km/h (0 Bft)
17.02.2020 01:12 20,2 C 2,4 C 1,1 C 46 % 85 % 1015,4 hPa 0,0 l/m 0,0 km/h (0 Bft) N-NO 22 0,1 C 2,4 C 0,0 km/h (0 Bft)
17.02.2020 01:10 20,3 C 2,5 C 1,2 C 46 % 85 % 1015,4 hPa 0,0 l/m 0,0 km/h (0 Bft) N-NO 22 0,2 C 2,5 C 0,0 km/h (0 Bft)
17.02.2020 01:08 20,3 C 2,8 C 1,2 C 46 % 85 % 1015,4 hPa 0,0 l/m 0,0 km/h (0 Bft) N 360 0,5 C 2,8 C 0,0 km/h (0 Bft)
17.02.2020 01:06 20,4 C 3,0 C 1,2 C 46 % 85 % 1015,4 hPa 0,0 l/m 0,0 km/h (0 Bft) N-NO 22 0,7 C 3,0 C 0,0 km/h (0 Bft)
17.02.2020 01:04 20,4 C 3,0 C 1,1 C 46 % 85 % 1015,1 hPa 0,0 l/m 0,0 km/h (0 Bft) W 270 0,7 C 3,0 C 0,0 km/h (0 Bft)
17.02.2020 01:02 20,4 C 3,0 C 1,2 C 46 % 85 % 1015,1 hPa 0,0 l/m 0,0 km/h (0 Bft) S 180 0,7 C 3,0 C 0,0 km/h (0 Bft)
17.02.2020 01:00 20,4 C 2,9 C 1,2 C 46 % 85 % 1015,1 hPa 0,0 l/m 0,0 km/h (0 Bft) SW 225 0,6 C 2,9 C 0,0 km/h (0 Bft)
17.02.2020 00:58 20,4 C 2,8 C 1,5 C 45 % 85 % 1015,1 hPa 0,0 l/m 0,0 km/h (0 Bft) S 180 0,5 C 2,8 C 0,0 km/h (0 Bft)
17.02.2020 00:56 20,4 C 2,8 C 1,6 C 45 % 85 % 1015,1 hPa 0,0 l/m 0,0 km/h (0 Bft) S-SO 157 0,5 C 2,8 C 0,0 km/h (0 Bft)
17.02.2020 00:54 20,5 C 2,6 C 1,5 C 45 % 85 % 1015,1 hPa 0,0 l/m 0,0 km/h (0 Bft) S-SO 157 0,3 C 2,6 C 0,0 km/h (0 Bft)
17.02.2020 00:52 20,5 C 2,6 C 1,3 C 45 % 85 % 1015,1 hPa 0,0 l/m 0,0 km/h (0 Bft) S-SO 157 0,3 C 2,6 C 0,0 km/h (0 Bft)
17.02.2020 00:50 20,5 C 2,6 C 1,2 C 45 % 85 % 1015,1 hPa 0,0 l/m 0,0 km/h (0 Bft) S-SO 157 0,3 C 2,6 C 0,0 km/h (0 Bft)
17.02.2020 00:48 20,5 C 2,6 C 1,1 C 45 % 85 % 1015,1 hPa 0,0 l/m 0,0 km/h (0 Bft) S-SO 157 0,3 C 2,6 C 0,0 km/h (0 Bft)
17.02.2020 00:46 20,5 C 2,6 C 1,2 C 45 % 85 % 1015,1 hPa 0,0 l/m 0,0 km/h (0 Bft) S 180 0,3 C 2,6 C 0,0 km/h (0 Bft)
17.02.2020 00:44 20,6 C 2,6 C 1,2 C 45 % 85 % 1015,2 hPa 0,0 l/m 0,0 km/h (0 Bft) S 180 0,3 C 2,6 C 0,0 km/h (0 Bft)
17.02.2020 00:42 20,6 C 2,6 C 1,3 C 45 % 85 % 1015,2 hPa 0,0 l/m 0,0 km/h (0 Bft) S 180 0,3 C 2,6 C 0,0 km/h (0 Bft)
17.02.2020 00:40 20,6 C 2,6 C 1,5 C 45 % 85 % 1015,2 hPa 0,0 l/m 0,0 km/h (0 Bft) W-SW 247 0,3 C 2,6 C 0,0 km/h (0 Bft)
17.02.2020 00:38 20,6 C 2,6 C 1,6 C 45 % 85 % 1015,2 hPa 0,0 l/m 0,0 km/h (0 Bft) SO 135 0,3 C 2,6 C 0,0 km/h (0 Bft)
17.02.2020 00:36 20,7 C 2,6 C 1,5 C 45 % 85 % 1015,2 hPa 0,0 l/m 0,0 km/h (0 Bft) S-SO 157 0,3 C 2,6 C 0,0 km/h (0 Bft)
17.02.2020 00:34 20,7 C 2,6 C 1,6 C 45 % 85 % 1015,2 hPa 0,0 l/m 0,0 km/h (0 Bft) S-SO 157 0,3 C 2,6 C 0,0 km/h (0 Bft)
17.02.2020 00:32 20,7 C 2,5 C 1,7 C 45 % 85 % 1015,2 hPa 0,0 l/m 0,0 km/h (0 Bft) SO 135 0,2 C 2,5 C 0,0 km/h (0 Bft)
17.02.2020 00:30 20,7 C 2,6 C 1,7 C 45 % 85 % 1015,2 hPa 0,0 l/m 0,0 km/h (0 Bft) S-SO 157 0,3 C 2,6 C 0,0 km/h (0 Bft)
17.02.2020 00:28 20,7 C 2,8 C 1,9 C 45 % 84 % 1015,2 hPa 0,0 l/m 0,2 km/h (0 Bft) S 180 0,4 C 2,8 C 0,0 km/h (0 Bft)
17.02.2020 00:26 20,7 C 2,9 C 2,0 C 45 % 84 % 1015,2 hPa 0,0 l/m 0,2 km/h (0 Bft) S 180 0,5 C 2,9 C 0,0 km/h (0 Bft)
17.02.2020 00:24 20,7 C 3,0 C 2,2 C 45 % 84 % 1015,6 hPa 0,0 l/m 0,2 km/h (0 Bft) S 180 0,6 C 3,0 C 0,0 km/h (0 Bft)
17.02.2020 00:22 20,8 C 3,0 C 2,3 C 45 % 84 % 1015,6 hPa 0,0 l/m 0,2 km/h (0 Bft) O-SO 112 0,6 C 3,0 C 0,0 km/h (0 Bft)
17.02.2020 00:20 20,8 C 3,0 C 2,3 C 45 % 84 % 1015,6 hPa 0,0 l/m 0,0 km/h (0 Bft) O-SO 112 0,6 C 3,0 C 0,0 km/h (0 Bft)
17.02.2020 00:18 20,8 C 3,0 C 2,3 C 45 % 84 % 1015,6 hPa 0,0 l/m 0,0 km/h (0 Bft) NO 45 0,6 C 3,0 C 0,0 km/h (0 Bft)
17.02.2020 00:16 20,8 C 3,1 C 2,3 C 45 % 84 % 1015,6 hPa 0,0 l/m 0,0 km/h (0 Bft) O 90 0,7 C 3,1 C 0,0 km/h (0 Bft)
17.02.2020 00:14 20,8 C 3,1 C 2,3 C 45 % 84 % 1015,6 hPa 0,0 l/m 0,0 km/h (0 Bft) NO 45 0,7 C 3,1 C 0,0 km/h (0 Bft)
17.02.2020 00:12 20,9 C 3,0 C 2,3 C 45 % 84 % 1015,6 hPa 0,0 l/m 0,0 km/h (0 Bft) N 360 0,6 C 3,0 C 0,0 km/h (0 Bft)
17.02.2020 00:10 20,9 C 2,6 C 2,3 C 45 % 84 % 1015,6 hPa 0,0 l/m 0,0 km/h (0 Bft) N 360 0,2 C 2,6 C 0,0 km/h (0 Bft)
17.02.2020 00:08 20,9 C 2,6 C 2,3 C 45 % 84 % 1015,6 hPa 0,0 l/m 0,0 km/h (0 Bft) N 360 0,2 C 2,6 C 0,0 km/h (0 Bft)
17.02.2020 00:06 20,9 C 2,6 C 2,3 C 45 % 84 % 1015,6 hPa 0,0 l/m 0,0 km/h (0 Bft) N 360 0,2 C 2,6 C 0,0 km/h (0 Bft)
17.02.2020 00:04 20,9 C 2,6 C 2,3 C 45 % 84 % 1015,6 hPa 0,0 l/m 0,0 km/h (0 Bft) N 360 0,2 C 2,6 C 0,0 km/h (0 Bft)
17.02.2020 00:02 20,9 C 2,6 C 2,3 C 45 % 84 % 1015,6 hPa 0,0 l/m 0,0 km/h (0 Bft) N 360 0,2 C 2,6 C 0,0 km/h (0 Bft)
17.02.2020 00:00 21,0 C 2,6 C 2,3 C 45 % 84 % 1015,6 hPa 0,0 l/m 0,0 km/h (0 Bft) N-NW 337 0,2 C 2,6 C 0,0 km/h (0 Bft)
_ Min-Zeit 07:36 03:40 06:56 00:00 00:00 06:46 - 00:00 - - 03:40 03:40 00:00
Minimum _ 17,0 C 1,6 C 0,6 C 45 % 84 % 1014,1 hPa - 0,0 km/h (0 Bft) - - -0,0 C 1,6 C 0,0 km/h (0 Bft)
_ Max-Zeit 00:00 07:56 00:00 04:28 07:10 00:00 00:00 04:40 - - 07:56 07:56 04:46
Maximum _ 21,0 C 3,3 C 2,3 C 48 % 92 % 1015,6 hPa 0,0 l/m 1,0 km/h
W (0 Bft)
- - 2,0 C 3,3 C 7,5 km/h
S (2 Bft)
Durchschnitt _ 18,8 C 2,4 C 1,0 C 47 % 89 % 1014,8 hPa #0,0 l/m 0,1 km/h (0 Bft) N - 0,7 C 2,4 C 0,3 km/h (0 Bft)